Terminal Aerodrome Forecast
Issued by NWS La Crosse, WI

Home | Current Version | Previous Version | Text Only | Print | Product List | Glossary On
Versions: 1 2 3 4 5 6 7 8 9 10 11 12 13 14 15 16 17 18 19 20 21 22 23 24 25 26 27 28 29 30 31 32 33 34 35 36 37 38 39 40 41 42 43 44 45 46
039
FTUS43 KARX 281132
TAFLSE
TAF
KLSE 281132Z 2812/2912 00000KT P6SM SCT015 OVC035
      TEMPO 2812/2813 1SM -SHRA BR BKN015
     FM281300 18005KT P6SM BKN035
     FM282100 18008KT P6SM VCTS BKN040CB
     FM290300 18005KT P6SM BKN050=

USA.gov is the U.S. government's official web portal to all federal, state and local government web resources and services.